Location: Newark
(40.7066°N, 111.8219°W)
Time: 01:26:06
(UTC+00:00)

Transit 2A Rocket - All Passes

Search period start: 20 November 2019 00:00
Search period end: 30 November 2019 00:00
Orbit: 594 x 909 km, 66.7° (Epoch: 18 November)

Date Brightness Start Highest point End Pass type
(mag) Time Alt. Az. Time Alt. Az. Time Alt. Az.
20 Nov - 03:31:32 10° SSE 03:34:50 18° ESE 03:37:59 10° ENE night (unlit)
20 Nov - 05:12:26 10° SW 05:17:03 47° WNW 05:21:23 10° NNE night (unlit)
20 Nov - 12:14:24 10° N 12:16:53 15° NE 12:19:23 10° E visible
20 Nov - 13:55:27 10° NW 13:59:50 69° WSW 14:04:26 10° SSE daylight
21 Nov - 04:29:40 10° SSW 04:34:30 86° WNW 04:39:00 10° NNE night (unlit)
21 Nov - 06:15:53 10° WNW 06:17:38 12° NW 06:19:22 10° NNW night (unlit)
21 Nov - 13:12:58 10° NNW 13:17:18 63° ENE 13:21:54 10° SE visible
21 Nov - 14:57:23 10° W 14:59:21 13° WSW 15:01:23 10° SW daylight
22 Nov - 03:47:21 10° S 03:52:02 50° ESE 03:56:23 10° NE night (unlit)
22 Nov - 05:31:24 10° W 05:34:46 19° NW 05:38:02 10° N night (unlit)
22 Nov - 12:30:42 10° NNW 12:34:42 34° NE 12:38:54 10° ESE visible
22 Nov - 14:13:30 10° WNW 14:17:04 24° WSW 14:20:48 10° SSW daylight
23 Nov - 03:05:35 10° SSE 03:09:38 27° ESE 03:13:27 10° NE night (unlit)
23 Nov - 04:47:48 10° WSW 04:52:03 32° NW 04:56:04 10° N night (unlit)
23 Nov - 11:48:42 10° N 11:51:59 20° NE 11:55:22 10° E visible
23 Nov - 13:30:28 10° NW 13:34:41 45° WSW 13:39:09 10° S visible
24 Nov - 02:24:42 10° SE 02:27:19 15° ESE 02:29:50 10° ENE night (unlit)
24 Nov - 04:04:44 10° SW 04:09:26 58° WNW 04:13:50 10° NNE night (unlit)
24 Nov - 11:07:16 10° NNE 11:09:08 12° NE 11:11:02 10° ENE visible
24 Nov - 12:47:48 10° NNW 12:52:14 86° WSW 12:56:54 10° SSE visible
25 Nov - 03:22:07 10° SSW 03:26:54 77° ESE 03:31:22 10° NNE visible
25 Nov - 05:07:28 10° WNW 05:09:55 14° NW 05:12:16 10° NNW night (unlit)
25 Nov - 12:05:24 10° NNW 12:09:41 50° ENE 12:14:12 10° SE visible
25 Nov - 13:49:04 10° WNW 13:51:50 16° WSW 13:54:42 10° SW visible
26 Nov - 02:39:58 10° S 02:44:28 40° ESE 02:48:40 10° NE visible
26 Nov - 04:23:23 10° WSW 04:27:05 23° NW 04:30:38 10° N night (unlit)
26 Nov - 11:23:13 10° N 11:27:02 28° NE 11:31:02 10° ESE visible
26 Nov - 13:05:38 10° NW 13:09:31 30° WSW 13:13:36 10° S visible
27 Nov - 01:58:27 10° SSE 02:02:05 22° ESE 02:05:33 10° ENE visible
27 Nov - 03:40:00 10° SW 03:44:24 39° NW 03:48:34 10° NNE visible
27 Nov - 10:41:20 10° N 10:44:17 17° NE 10:47:18 10° E visible
27 Nov - 12:22:46 10° NW 12:27:06 57° WSW 12:31:43 10° SSE visible
28 Nov - 01:18:17 10° SE 01:19:48 11° ESE 01:21:18 10° E visible
28 Nov - 02:57:05 10° SW 03:01:49 72° WNW 03:06:15 10° NNE visible
28 Nov - 10:00:32 10° NNE 10:01:23 10° NE 10:02:14 10° NE night (unlit)
28 Nov - 11:40:12 10° NNW 11:44:37 77° ENE 11:49:19 10° SSE visible
28 Nov - 13:25:47 10° W 13:26:35 10° WSW 13:27:24 10° WSW visible
29 Nov - 02:14:37 10° SSW 02:19:19 61° ESE 02:23:42 10° NE visible
29 Nov - 03:59:15 10° W 04:02:11 16° NW 04:05:01 10° N visible
29 Nov - 10:57:51 10° NNW 11:02:03 41° NE 11:06:28 10° SE visible
29 Nov - 12:41:01 10° WNW 12:44:19 20° WSW 12:47:46 10° SSW visible
